Location: Melara
(45.0500°N, 11.1833°E)
Time: 10:18:16
(UTC+00:00)

UKube-1 - Pass Details

Date: 01 June 2024
Orbit: 582 x 590 km, 98.3° (Epoch: 16 June)

Event Time Altitude Azimuth Distance (km) Brightness Sun altitude
Rises 00:17:42 0° 16° (NNE) 2,815 ? -21.3°
Reaches altitude 10° 00:19:53 10° 19° (NNE) 1,910 ? -21.2°
Maximum altitude 00:24:00 65° 102° (ESE) 643 ? -20.9°
Enters shadow 00:24:43 54° 153° (SSE) 715 ? -20.9°
